McAlester, OK

3:27 AM CST on November 19, 2017 (GMT -0600)
McAlester Regional

Weather History for KMLC - August, 2014

Change the Weather History Date:

Friday, August 8, 2014

  Actual Average Record
Temperature  
Mean Temperature 84 °F -  
Max Temperature 91 °F 93 °F 106 °F (1956)
Min Temperature 77 °F 70 °F 51 °F (1989)
Cooling Degree Days 18    
Growing Degree Days 34 (Base 50)    
Moisture  
Dew Point 75 °F    
Average Humidity 78    
Maximum Humidity 94    
Minimum Humidity 59    
Precipitation  
Precipitation 0.00 in - - ()
Sea Level Pressure  
Sea Level Pressure 29.89 in    
Wind  
Wind Speed 4 mph (SSE)    
Max Wind Speed 8 mph    
Max Gust Speed -    
Visibility 9 miles    
Events      
Averages and records for this station are not official NWS values.
T = Trace of Precipitation, MM = Missing Value Source: NWS Daily Summary

Daily Weather History Graph

Daily Weather History Graph

Search for Another Location

Airport or City:

Trip Planner

Search our weather history database for the weather conditions in past years. The results will help you decide how hot, cold, wet, or windy it might be!

Date:

Astronomy

Aug. 08, 2014 Rise Set
Actual Time 6:38 AM CDT 8:18 PM CDT
Civil Twilight 6:10 AM CDT 8:46 PM CDT
Nautical Twilight 5:37 AM CDT 9:18 PM CDT
Astronomical Twilight 5:03 AM CDT 9:53 PM CDT
Moon 6:30 PM CDT (8/8) 4:13 AM CDT (8/8)
Length of Visible Light 14h 35m
Length of Day
13h 40m
Waxing Gibbous, 94% of the Moon is Illuminated
Aug 8
Waxing Gibbous
Aug 10
Full
Aug 17
Last Quarter
Aug 25
New
Sep 2
First Quarter

Hourly Weather History & Observations

Time (CDT) Temp. Heat Index Dew Point Humidity Pressure Visibility Wind Dir Wind Speed Gust Speed Precip Events Conditions
12:53 AM 79.0 °F - 75.0 °F 88% 29.86 in 8.0 mi ESE 4.6 mph - N/A   Clear
1:53 AM 79.0 °F - 75.9 °F 90% 29.86 in 8.0 mi Calm Calm - N/A   Clear
2:53 AM 78.1 °F - 75.0 °F 90% 29.86 in 6.0 mi East 4.6 mph - N/A   Clear
3:53 AM 77.0 °F - 75.0 °F 94% 29.85 in 5.0 mi Calm Calm - N/A   Clear
4:53 AM 77.0 °F - 75.0 °F 94% 29.86 in 6.0 mi Calm Calm - N/A   Clear
5:53 AM 78.1 °F - 73.9 °F 87% 29.86 in 9.0 mi South 3.5 mph - N/A   Partly Cloudy
6:53 AM 78.1 °F - 73.9 °F 87% 29.88 in 8.0 mi SSE 3.5 mph - N/A   Clear
7:53 AM 79.0 °F - 73.9 °F 84% 29.89 in 10.0 mi Calm Calm - N/A   Clear
8:53 AM 81.0 °F 86.7 °F 75.0 °F 82% 29.94 in 10.0 mi NW 6.9 mph - N/A   Partly Cloudy
9:53 AM 82.9 °F 89.4 °F 73.9 °F 74% 29.91 in 10.0 mi ESE 4.6 mph - N/A   Clear
10:53 AM 86.0 °F 93.8 °F 73.9 °F 67% 29.91 in 10.0 mi Variable 5.8 mph - N/A   Partly Cloudy
11:53 AM 86.0 °F 95.1 °F 75.0 °F 70% 29.91 in 10.0 mi SSW 8.1 mph - N/A   Partly Cloudy
12:53 PM 87.1 °F 96.3 °F 75.0 °F 67% 29.91 in 10.0 mi Variable 4.6 mph - N/A   Partly Cloudy
1:53 PM 87.1 °F 96.3 °F 75.0 °F 67% 29.90 in 10.0 mi South 5.8 mph - N/A   Clear
2:53 PM 88.0 °F 97.5 °F 75.0 °F 65% 29.89 in 10.0 mi South 5.8 mph - N/A   Mostly Cloudy
3:53 PM 87.1 °F 96.3 °F 75.0 °F 67% 29.88 in 10.0 mi SW 5.8 mph - N/A   Mostly Cloudy
4:53 PM 90.0 °F 100.2 °F 75.0 °F 61% 29.87 in 10.0 mi West 6.9 mph - 0.00 in   Partly Cloudy
5:53 PM 89.1 °F 99.1 °F 75.0 °F 63% 29.86 in 10.0 mi Variable 3.5 mph - N/A   Partly Cloudy
6:53 PM 90.0 °F 99.0 °F 73.9 °F 59% 29.87 in 10.0 mi West 3.5 mph - N/A   Scattered Clouds
7:53 PM 86.0 °F 96.9 °F 77.0 °F 74% 29.86 in 10.0 mi East 3.5 mph - N/A   Clear
8:53 PM 82.0 °F 91.0 °F 78.1 °F 88% 29.87 in 10.0 mi Calm Calm - N/A   Clear
9:53 PM 82.9 °F 91.8 °F 77.0 °F 82% 29.91 in 10.0 mi ESE 3.5 mph - N/A   Clear
10:53 PM 82.0 °F 89.4 °F 75.9 °F 82% 29.92 in 10.0 mi East 4.6 mph - N/A   Clear
11:53 PM 80.1 °F 85.1 °F 75.0 °F 85% 29.92 in 10.0 mi East 4.6 mph - N/A   Clear